Time,TemperatureF,DewpointF,PressureIn,WindDirection,WindDirectionDegrees,WindSpeedMPH,WindSpeedGustMPH,Humidity,HourlyPrecipIn,Conditions,Clouds,dailyrainin,SoftwareType,DateUTC
2013-05-16 00:01:00,57.0,43.7,29.83,SSW,203,0.0,0.0,61,0.00,,,0.00,WUHU216HW,2013-05-16 05:01:00,
2013-05-16 00:06:00,57.3,44.4,29.84,SW,225,0.0,0.0,62,0.00,,,0.00,WUHU216HW,2013-05-16 05:06:00,
2013-05-16 00:11:00,57.3,44.0,29.84,SW,225,0.0,0.0,61,0.00,,,0.00,WUHU216HW,2013-05-16 05:11:00,
2013-05-16 00:16:00,57.3,44.0,29.84,SW,225,0.0,0.0,61,0.00,,,0.00,WUHU216HW,2013-05-16 05:16:00,
2013-05-16 00:21:00,57.0,43.7,29.84,SW,225,0.0,0.0,61,0.00,,,0.00,WUHU216HW,2013-05-16 05:21:00,
2013-05-16 00:26:00,57.0,43.7,29.84,SW,225,0.0,0.0,61,0.00,,,0.00,WUHU216HW,2013-05-16 05:26:00,
2013-05-16 00:31:00,57.0,43.7,29.84,SW,225,0.0,0.0,61,0.00,,,0.00,WUHU216HW,2013-05-16 05:31:00,
2013-05-16 00:36:00,57.0,43.7,29.84,SW,225,0.0,0.0,61,0.00,,,0.00,WUHU216HW,2013-05-16 05:36:00,
2013-05-16 00:41:00,57.0,43.7,29.84,SW,225,0.0,0.0,61,0.00,,,0.00,WUHU216HW,2013-05-16 05:41:00,
2013-05-16 00:46:00,56.8,43.9,29.84,SW,225,0.0,0.0,62,0.00,,,0.00,WUHU216HW,2013-05-16 05:46:00,
2013-05-16 00:51:00,56.8,43.9,29.85,SW,225,0.0,0.0,62,0.00,,,0.00,WUHU216HW,2013-05-16 05:51:00,
2013-05-16 00:56:00,56.6,43.7,29.84,SW,225,0.0,0.0,62,0.00,,,0.00,WUHU216HW,2013-05-16 05:56:00,
2013-05-16 01:01:00,56.4,43.5,29.84,SW,225,0.0,0.0,62,0.00,,,0.00,WUHU216HW,2013-05-16 06:01:00,
2013-05-16 01:06:00,56.4,43.5,29.84,SW,225,0.0,0.0,62,0.00,,,0.00,WUHU216HW,2013-05-16 06:06:00,
2013-05-16 01:11:00,56.4,43.5,29.84,SW,225,0.0,0.0,62,0.00,,,0.00,WUHU216HW,2013-05-16 06:11:00,
2013-05-16 01:16:00,56.3,43.4,29.85,SW,225,0.0,0.0,62,0.00,,,0.00,WUHU216HW,2013-05-16 06:16:00,
2013-05-16 01:21:00,56.1,42.8,29.85,SSW,203,0.0,0.0,61,0.00,,,0.00,WUHU216HW,2013-05-16 06:21:00,
2013-05-16 01:26:00,55.9,43.0,29.84,SSW,203,0.0,0.0,62,0.00,,,0.00,WUHU216HW,2013-05-16 06:26:00,
2013-05-16 01:31:00,55.7,42.8,29.85,SW,225,0.0,0.0,62,0.00,,,0.00,WUHU216HW,2013-05-16 06:31:00,
2013-05-16 01:36:00,55.5,42.7,29.84,SW,225,0.0,0.0,62,0.00,,,0.00,WUHU216HW,2013-05-16 06:36:00,
2013-05-16 01:41:00,55.5,42.7,29.85,SSW,203,0.0,0.0,62,0.00,,,0.00,WUHU216HW,2013-05-16 06:41:00,
2013-05-16 01:46:00,55.7,42.8,29.85,West,270,0.0,0.0,62,0.00,,,0.00,WUHU216HW,2013-05-16 06:46:00,
2013-05-16 01:51:00,55.9,43.0,29.85,SW,225,0.0,0.0,62,0.00,,,0.00,WUHU216HW,2013-05-16 06:51:00,
2013-05-16 01:56:00,55.9,43.0,29.85,SW,225,0.0,0.0,62,0.00,,,0.00,WUHU216HW,2013-05-16 06:56:00,
2013-05-16 02:01:00,56.1,43.2,29.85,SW,225,0.0,0.0,62,0.00,,,0.00,WUHU216HW,2013-05-16 07:01:00,
2013-05-16 02:06:00,56.1,43.2,29.85,SW,225,0.0,0.0,62,0.00,,,0.00,WUHU216HW,2013-05-16 07:06:00,
2013-05-16 02:11:00,55.9,43.0,29.85,WSW,248,0.0,0.0,62,0.00,,,0.00,WUHU216HW,2013-05-16 07:11:00,
2013-05-16 02:16:00,55.9,43.4,29.85,WSW,248,0.0,0.0,63,0.00,,,0.00,WUHU216HW,2013-05-16 07:16:00,
2013-05-16 02:21:00,56.1,43.2,29.85,WSW,248,0.0,0.0,62,0.00,,,0.00,WUHU216HW,2013-05-16 07:21:00,
2013-05-16 02:26:00,56.3,43.4,29.85,WSW,248,0.0,0.0,62,0.00,,,0.00,WUHU216HW,2013-05-16 07:26:00,
2013-05-16 02:31:00,56.3,43.4,29.85,West,270,0.0,0.0,62,0.00,,,0.00,WUHU216HW,2013-05-16 07:31:00,
2013-05-16 02:36:00,56.3,43.4,29.85,West,270,0.0,0.0,62,0.00,,,0.00,WUHU216HW,2013-05-16 07:36:00,
2013-05-16 02:41:00,56.1,43.2,29.85,West,270,0.0,0.0,62,0.00,,,0.00,WUHU216HW,2013-05-16 07:41:00,
2013-05-16 02:46:00,55.9,42.6,29.85,SW,225,0.0,0.0,61,0.00,,,0.00,WUHU216HW,2013-05-16 07:46:00,
2013-05-16 02:51:00,55.7,42.8,29.85,SSW,203,0.0,0.0,62,0.00,,,0.00,WUHU216HW,2013-05-16 07:51:00,
2013-05-16 02:56:00,55.5,42.7,29.85,South,180,0.0,0.0,62,0.00,,,0.00,WUHU216HW,2013-05-16 07:56:00,
2013-05-16 03:01:00,55.4,42.5,29.85,SSW,203,0.0,0.0,62,0.00,,,0.00,WUHU216HW,2013-05-16 08:01:00,
2013-05-16 03:06:00,55.2,42.3,29.85,SSW,203,0.0,0.0,62,0.00,,,0.00,WUHU216HW,2013-05-16 08:06:00,
2013-05-16 03:11:00,55.0,42.6,29.85,SSW,203,0.0,0.0,63,0.00,,,0.00,WUHU216HW,2013-05-16 08:11:00,
2013-05-16 03:16:00,54.8,42.4,29.85,SSW,203,0.0,0.0,63,0.00,,,0.00,WUHU216HW,2013-05-16 08:16:00,
2013-05-16 03:21:00,54.6,42.2,29.85,SW,225,0.0,0.0,63,0.00,,,0.00,WUHU216HW,2013-05-16 08:21:00,
2013-05-16 03:26:00,54.6,42.2,29.85,SW,225,0.0,0.0,63,0.00,,,0.00,WUHU216HW,2013-05-16 08:26:00,
2013-05-16 03:31:00,54.8,42.4,29.85,SW,225,0.0,0.0,63,0.00,,,0.00,WUHU216HW,2013-05-16 08:31:00,
2013-05-16 03:36:00,54.6,42.6,29.85,SSW,203,0.0,0.0,64,0.00,,,0.00,WUHU216HW,2013-05-16 08:36:00,
2013-05-16 03:41:00,54.5,42.5,29.85,SSW,203,0.0,0.0,64,0.00,,,0.00,WUHU216HW,2013-05-16 08:41:00,
2013-05-16 03:46:00,54.3,42.3,29.85,SSW,203,0.0,0.0,64,0.00,,,0.00,WUHU216HW,2013-05-16 08:46:00,
2013-05-16 03:51:00,54.3,42.7,29.85,WSW,248,0.0,0.0,65,0.00,,,0.00,WUHU216HW,2013-05-16 08:51:00,
2013-05-16 03:56:00,54.3,42.7,29.85,WSW,248,0.0,0.0,65,0.00,,,0.00,WUHU216HW,2013-05-16 08:56:00,
2013-05-16 04:01:00,54.6,43.1,29.85,SW,225,0.0,0.0,65,0.00,,,0.00,WUHU216HW,2013-05-16 09:01:00,
2013-05-16 04:06:00,54.6,42.6,29.85,SW,225,0.0,0.0,64,0.00,,,0.00,WUHU216HW,2013-05-16 09:06:00,
2013-05-16 04:11:00,54.6,42.6,29.85,SW,225,0.0,0.0,64,0.00,,,0.00,WUHU216HW,2013-05-16 09:11:00,
2013-05-16 04:16:00,54.6,42.6,29.85,SSW,203,0.0,0.0,64,0.00,,,0.00,WUHU216HW,2013-05-16 09:16:00,
2013-05-16 04:21:00,54.1,42.1,29.85,SSW,203,0.0,0.0,64,0.00,,,0.00,WUHU216HW,2013-05-16 09:21:00,
2013-05-16 04:26:00,53.9,42.4,29.85,SSW,203,0.0,0.0,65,0.00,,,0.00,WUHU216HW,2013-05-16 09:26:00,
2013-05-16 04:31:00,54.1,42.5,29.85,SW,225,0.0,0.0,65,0.00,,,0.00,WUHU216HW,2013-05-16 09:31:00,
2013-05-16 04:36:00,54.6,43.1,29.86,WNW,293,0.0,0.0,65,0.00,,,0.00,WUHU216HW,2013-05-16 09:36:00,
2013-05-16 04:41:00,55.2,43.1,29.85,WNW,293,0.0,0.0,64,0.00,,,0.00,WUHU216HW,2013-05-16 09:41:00,
2013-05-16 04:46:00,54.8,42.8,29.85,SW,225,0.0,0.0,64,0.00,,,0.00,WUHU216HW,2013-05-16 09:46:00,
2013-05-16 04:51:00,53.6,41.6,29.85,SW,225,0.0,0.0,64,0.00,,,0.00,WUHU216HW,2013-05-16 09:51:00,
2013-05-16 04:56:00,53.4,42.2,29.85,West,270,0.0,0.0,66,0.00,,,0.00,WUHU216HW,2013-05-16 09:56:00,
2013-05-16 05:01:00,53.7,42.6,29.85,West,270,0.0,0.0,66,0.00,,,0.00,WUHU216HW,2013-05-16 10:01:00,
2013-05-16 05:06:00,53.7,42.6,29.85,West,270,0.0,0.0,66,0.00,,,0.00,WUHU216HW,2013-05-16 10:06:00,
2013-05-16 05:11:00,53.2,42.1,29.85,West,270,0.0,0.0,66,0.00,,,0.00,WUHU216HW,2013-05-16 10:11:00,
2013-05-16 05:16:00,53.0,41.9,29.85,West,270,0.0,0.0,66,0.00,,,0.00,WUHU216HW,2013-05-16 10:16:00,
2013-05-16 05:21:00,52.8,41.7,29.85,West,270,0.0,0.0,66,0.00,,,0.00,WUHU216HW,2013-05-16 10:21:00,
2013-05-16 05:26:00,52.8,41.7,29.85,West,270,0.0,0.0,66,0.00,,,0.00,WUHU216HW,2013-05-16 10:26:00,
2013-05-16 05:31:00,52.7,42.0,29.86,West,270,0.0,0.0,67,0.00,,,0.00,WUHU216HW,2013-05-16 10:31:00,
2013-05-16 05:36:00,53.2,42.5,29.85,West,270,0.0,0.0,67,0.00,,,0.00,WUHU216HW,2013-05-16 10:36:00,
2013-05-16 05:41:00,53.6,42.8,29.85,West,270,0.0,0.0,67,0.00,,,0.00,WUHU216HW,2013-05-16 10:41:00,
2013-05-16 05:46:00,53.2,42.1,29.85,West,270,0.0,0.0,66,0.00,,,0.00,WUHU216HW,2013-05-16 10:46:00,
2013-05-16 05:51:00,52.3,41.2,29.86,West,270,0.0,0.0,66,0.00,,,0.00,WUHU216HW,2013-05-16 10:51:00,
2013-05-16 05:56:00,52.1,41.5,29.86,West,270,0.0,0.0,67,0.00,,,0.00,WUHU216HW,2013-05-16 10:56:00,
2013-05-16 06:01:00,52.5,41.8,29.86,West,270,0.0,0.0,67,0.00,,,0.00,WUHU216HW,2013-05-16 11:01:00,
2013-05-16 06:06:00,53.2,42.9,29.86,NW,315,0.0,0.0,68,0.00,,,0.00,WUHU216HW,2013-05-16 11:06:00,
2013-05-16 06:11:00,53.7,43.4,29.87,NW,315,0.0,0.0,68,0.00,,,0.00,WUHU216HW,2013-05-16 11:11:00,
2013-05-16 06:16:00,54.3,43.5,29.87,NW,315,0.0,0.0,67,0.00,,,0.00,WUHU216HW,2013-05-16 11:16:00,
2013-05-16 06:21:00,54.6,43.5,29.87,NW,315,0.0,0.0,66,0.00,,,0.00,WUHU216HW,2013-05-16 11:21:00,
2013-05-16 06:26:00,54.5,43.3,29.86,NW,315,0.0,0.0,66,0.00,,,0.00,WUHU216HW,2013-05-16 11:26:00,
2013-05-16 06:31:00,54.6,44.4,29.86,NW,315,0.0,0.0,67,0.00,,,0.00,WUHU216HW,2013-05-16 11:31:00,
2013-05-16 06:36:00,55.9,45.1,29.87,WNW,293,0.0,0.0,67,0.00,,,0.00,WUHU216HW,2013-05-16 11:36:00,
2013-05-16 06:41:00,57.3,46.4,29.87,WNW,293,0.0,0.0,67,0.00,,,0.00,WUHU216HW,2013-05-16 11:41:00,
2013-05-16 06:46:00,58.8,48.2,29.87,WNW,293,0.0,0.0,68,0.00,,,0.00,WUHU216HW,2013-05-16 11:46:00,
2013-05-16 06:51:00,61.8,48.7,29.87,WNW,293,0.0,0.0,62,0.00,,,0.00,WUHU216HW,2013-05-16 11:51:00,
2013-05-16 06:56:00,63.5,48.3,29.87,WNW,293,0.0,0.0,58,0.00,,,0.00,WUHU216HW,2013-05-16 11:56:00,
2013-05-16 07:01:00,64.2,48.5,29.87,West,270,0.0,0.0,57,0.00,,,0.00,WUHU216HW,2013-05-16 12:01:00,
2013-05-16 07:06:00,64.0,48.3,29.87,WNW,293,0.0,0.0,57,0.00,,,0.00,WUHU216HW,2013-05-16 12:06:00,
2013-05-16 07:11:00,63.8,47.7,29.88,WNW,293,0.0,0.0,56,0.00,,,0.00,WUHU216HW,2013-05-16 12:11:00,
2013-05-16 07:16:00,63.3,47.2,29.88,WNW,293,0.0,0.0,56,0.00,,,0.00,WUHU216HW,2013-05-16 12:16:00,
2013-05-16 07:22:00,62.9,46.9,29.88,WNW,293,0.0,0.0,56,0.00,,,0.00,WUHU216HW,2013-05-16 12:22:00,
2013-05-16 07:26:00,62.9,47.4,29.88,WNW,293,0.0,0.0,57,0.00,,,0.00,WUHU216HW,2013-05-16 12:26:00,
2013-05-16 07:32:00,63.3,47.7,29.88,WSW,248,0.0,0.0,57,0.00,,,0.00,WUHU216HW,2013-05-16 12:32:00,
2013-05-16 07:37:00,64.2,48.0,29.88,WNW,293,0.0,0.0,56,0.00,,,0.00,WUHU216HW,2013-05-16 12:37:00,
2013-05-16 07:42:00,64.5,48.4,29.89,WNW,293,0.0,0.0,56,0.00,,,0.00,WUHU216HW,2013-05-16 12:42:00,
2013-05-16 07:47:00,64.4,47.7,29.89,NNW,338,0.0,0.0,56,0.00,,,0.00,WUHU216HW,2013-05-16 12:47:00,
2013-05-16 07:52:00,64.0,47.9,29.89,North,0,0.0,0.0,56,0.00,,,0.00,WUHU216HW,2013-05-16 12:52:00,
2013-05-16 07:57:00,64.2,48.5,29.89,NNW,338,0.0,0.0,57,0.00,,,0.00,WUHU216HW,2013-05-16 12:57:00,
2013-05-16 08:02:00,65.3,49.0,29.89,West,270,0.0,0.0,57,0.00,,,0.00,WUHU216HW,2013-05-16 13:02:00,
2013-05-16 08:07:00,66.7,50.5,29.88,West,270,0.0,0.0,56,0.00,,,0.00,WUHU216HW,2013-05-16 13:07:00,
2013-05-16 08:12:00,68.3,50.5,29.89,NW,315,0.0,0.0,53,0.00,,,0.00,WUHU216HW,2013-05-16 13:12:00,
2013-05-16 08:17:00,69.2,51.3,29.89,NW,315,0.0,0.0,52,0.00,,,0.00,WUHU216HW,2013-05-16 13:17:00,
2013-05-16 08:22:00,70.3,51.3,29.89,West,270,0.0,0.0,51,0.00,,,0.00,WUHU216HW,2013-05-16 13:22:00,
2013-05-16 08:27:00,71.2,51.6,29.89,WNW,293,0.0,0.0,50,0.00,,,0.00,WUHU216HW,2013-05-16 13:27:00,
2013-05-16 08:32:00,71.4,51.2,29.89,West,270,0.0,0.0,49,0.00,,,0.00,WUHU216HW,2013-05-16 13:32:00,
2013-05-16 08:37:00,71.4,51.8,29.89,WNW,293,0.0,0.0,50,0.00,,,0.00,WUHU216HW,2013-05-16 13:37:00,
2013-05-16 08:42:00,72.3,52.6,29.89,WNW,293,0.0,0.0,50,0.00,,,0.00,WUHU216HW,2013-05-16 13:42:00,
2013-05-16 08:47:00,72.5,52.1,29.89,WNW,293,0.0,0.0,49,0.00,,,0.00,WUHU216HW,2013-05-16 13:47:00,
2013-05-16 08:52:00,72.6,51.7,29.90,NNW,338,0.0,0.0,48,0.00,,,0.00,WUHU216HW,2013-05-16 13:52:00,
2013-05-16 08:57:00,72.6,51.1,29.90,NE,45,0.0,0.0,47,0.00,,,0.00,WUHU216HW,2013-05-16 13:57:00,
2013-05-16 09:02:00,72.3,51.4,29.90,ENE,68,0.0,0.0,48,0.00,,,0.00,WUHU216HW,2013-05-16 14:02:00,
2013-05-16 09:07:00,72.6,51.7,29.90,ENE,68,0.0,0.0,48,0.00,,,0.00,WUHU216HW,2013-05-16 14:07:00,
2013-05-16 09:12:00,72.8,53.1,29.91,ENE,68,0.0,0.0,50,0.00,,,0.00,WUHU216HW,2013-05-16 14:12:00,
2013-05-16 09:17:00,73.2,52.5,29.90,ENE,68,0.0,0.0,48,0.00,,,0.00,WUHU216HW,2013-05-16 14:17:00,
2013-05-16 09:22:00,73.9,52.9,29.90,East,90,0.0,0.0,48,0.00,,,0.00,WUHU216HW,2013-05-16 14:22:00,
2013-05-16 09:27:00,74.1,53.1,29.90,ESE,113,0.0,0.0,48,0.00,,,0.00,WUHU216HW,2013-05-16 14:27:00,
2013-05-16 09:32:00,74.3,52.6,29.90,ENE,68,0.0,0.0,47,0.00,,,0.00,WUHU216HW,2013-05-16 14:32:00,
2013-05-16 09:37:00,73.9,52.3,29.90,ENE,68,0.0,0.0,47,0.00,,,0.00,WUHU216HW,2013-05-16 14:37:00,
2013-05-16 09:42:00,73.7,52.7,29.90,ESE,113,0.0,0.0,48,0.00,,,0.00,WUHU216HW,2013-05-16 14:42:00,
2013-05-16 09:47:00,73.7,52.1,29.90,ENE,68,0.0,0.0,47,0.00,,,0.00,WUHU216HW,2013-05-16 14:47:00,
2013-05-16 09:52:00,73.9,52.3,29.90,NE,45,0.0,0.0,47,0.00,,,0.00,WUHU216HW,2013-05-16 14:52:00,
2013-05-16 09:57:00,73.9,52.3,29.90,NNE,23,0.0,0.0,47,0.00,,,0.00,WUHU216HW,2013-05-16 14:57:00,
2013-05-16 10:02:00,74.1,52.0,29.90,NE,45,0.0,0.0,46,0.00,,,0.00,WUHU216HW,2013-05-16 15:02:00,
2013-05-16 10:07:00,74.4,52.8,29.90,East,90,0.0,0.0,47,0.00,,,0.00,WUHU216HW,2013-05-16 15:07:00,
2013-05-16 10:12:00,74.8,52.5,29.90,ENE,68,0.0,0.0,46,0.00,,,0.00,WUHU216HW,2013-05-16 15:12:00,
2013-05-16 10:17:00,75.0,52.7,29.89,East,90,0.0,0.0,46,0.00,,,0.00,WUHU216HW,2013-05-16 15:17:00,
2013-05-16 10:22:00,75.3,53.1,29.90,ESE,113,0.0,0.0,46,0.00,,,0.00,WUHU216HW,2013-05-16 15:22:00,
2013-05-16 10:27:00,75.7,52.8,29.90,East,90,0.0,0.0,45,0.00,,,0.00,WUHU216HW,2013-05-16 15:27:00,
2013-05-16 10:32:00,75.5,52.6,29.90,ESE,113,0.0,0.0,46,0.00,,,0.00,WUHU216HW,2013-05-16 15:32:00,
2013-05-16 10:37:00,75.9,52.9,29.90,NE,45,0.0,0.0,45,0.00,,,0.00,WUHU216HW,2013-05-16 15:37:00,
2013-05-16 10:42:00,75.7,52.8,29.89,East,90,0.0,0.0,45,0.00,,,0.00,WUHU216HW,2013-05-16 15:42:00,
2013-05-16 10:47:00,76.4,54.0,29.89,ESE,113,0.0,0.0,46,0.00,,,0.00,WUHU216HW,2013-05-16 15:47:00,
2013-05-16 10:52:00,76.8,53.1,29.89,ENE,68,0.0,0.0,44,0.00,,,0.00,WUHU216HW,2013-05-16 15:52:00,
2013-05-16 10:57:00,77.0,53.3,29.89,North,0,0.0,0.0,44,0.00,,,0.00,WUHU216HW,2013-05-16 15:57:00,
2013-05-16 11:02:00,76.8,52.5,29.89,ENE,68,0.0,0.0,43,0.00,,,0.00,WUHU216HW,2013-05-16 16:02:00,
2013-05-16 11:07:00,77.0,53.3,29.89,ESE,113,0.0,0.0,44,0.00,,,0.00,WUHU216HW,2013-05-16 16:07:00,
2013-05-16 11:12:00,77.3,53.0,29.89,ESE,113,0.0,0.0,43,0.00,,,0.00,WUHU216HW,2013-05-16 16:12:00,
2013-05-16 11:17:00,77.9,53.5,29.89,East,90,0.0,0.0,43,0.00,,,0.00,WUHU216HW,2013-05-16 16:17:00,
2013-05-16 11:22:00,78.4,54.6,29.89,East,90,0.0,0.0,44,0.00,,,0.00,WUHU216HW,2013-05-16 16:22:00,
2013-05-16 11:27:00,78.9,54.5,29.89,ENE,68,0.0,0.0,43,0.00,,,0.00,WUHU216HW,2013-05-16 16:27:00,
2013-05-16 11:32:00,78.9,54.5,29.89,NE,45,0.0,0.0,43,0.00,,,0.00,WUHU216HW,2013-05-16 16:32:00,
2013-05-16 11:37:00,79.1,54.6,29.89,ESE,113,0.0,0.0,43,0.00,,,0.00,WUHU216HW,2013-05-16 16:37:00,
2013-05-16 11:42:00,78.9,53.9,29.89,East,90,0.0,0.0,42,0.00,,,0.00,WUHU216HW,2013-05-16 16:42:00,
2013-05-16 11:47:00,79.5,54.3,29.89,East,90,0.0,0.0,42,0.00,,,0.00,WUHU216HW,2013-05-16 16:47:00,
2013-05-16 11:52:00,79.5,53.1,29.89,NE,45,0.0,0.0,40,0.00,,,0.00,WUHU216HW,2013-05-16 16:52:00,
2013-05-16 11:57:00,79.3,53.0,29.88,ENE,68,0.0,0.0,40,0.00,,,0.00,WUHU216HW,2013-05-16 16:57:00,
2013-05-16 12:02:00,79.3,53.6,29.88,ENE,68,0.0,0.0,41,0.00,,,0.00,WUHU216HW,2013-05-16 17:02:00,
2013-05-16 12:07:00,79.5,53.7,29.88,NNE,23,0.0,0.0,41,0.00,,,0.00,WUHU216HW,2013-05-16 17:07:00,
2013-05-16 12:12:00,79.7,53.3,29.88,NE,45,0.0,0.0,40,0.00,,,0.00,WUHU216HW,2013-05-16 17:12:00,
2013-05-16 12:17:00,79.8,54.1,29.88,NE,45,0.0,0.0,41,0.00,,,0.00,WUHU216HW,2013-05-16 17:17:00,
2013-05-16 12:22:00,80.4,53.9,29.88,East,90,0.0,0.0,40,0.00,,,0.00,WUHU216HW,2013-05-16 17:22:00,
2013-05-16 12:27:00,80.9,53.6,29.88,East,90,0.0,0.0,39,0.00,,,0.00,WUHU216HW,2013-05-16 17:27:00,
2013-05-16 12:32:00,81.3,53.9,29.88,ENE,68,0.0,0.0,39,0.00,,,0.00,WUHU216HW,2013-05-16 17:32:00,
2013-05-16 12:37:00,81.6,54.3,29.87,East,90,0.0,0.0,39,0.00,,,0.00,WUHU216HW,2013-05-16 17:37:00,
2013-05-16 12:42:00,82.2,53.2,29.87,ENE,68,0.0,0.0,37,0.00,,,0.00,WUHU216HW,2013-05-16 17:42:00,
2013-05-16 12:47:00,82.9,52.2,29.87,ESE,113,0.0,0.0,35,0.00,,,0.00,WUHU216HW,2013-05-16 17:47:00,
2013-05-16 12:52:00,83.1,52.4,29.87,East,90,0.0,0.0,35,0.00,,,0.00,WUHU216HW,2013-05-16 17:52:00,
2013-05-16 12:57:00,83.6,52.9,29.87,NNW,338,0.0,0.0,35,0.00,,,0.00,WUHU216HW,2013-05-16 17:57:00,
2013-05-16 13:02:00,84.0,51.6,29.87,ESE,113,0.0,0.0,33,0.00,,,0.00,WUHU216HW,2013-05-16 18:02:00,
2013-05-16 13:07:00,84.0,52.4,29.87,ESE,113,0.0,0.0,34,0.00,,,0.00,WUHU216HW,2013-05-16 18:07:00,
2013-05-16 13:12:00,84.0,52.4,29.87,NE,45,0.0,0.0,34,0.00,,,0.00,WUHU216HW,2013-05-16 18:12:00,
2013-05-16 13:17:00,83.4,48.8,29.87,East,90,0.0,0.0,30,0.00,,,0.00,WUHU216HW,2013-05-16 18:17:00,
2013-05-16 13:22:00,83.1,50.8,29.87,ESE,113,0.0,0.0,33,0.00,,,0.00,WUHU216HW,2013-05-16 18:22:00,
2013-05-16 13:27:00,82.2,50.0,29.87,East,90,0.0,0.0,33,0.00,,,0.00,WUHU216HW,2013-05-16 18:27:00,
2013-05-16 13:32:00,82.2,50.0,29.87,ENE,68,0.0,0.0,33,0.00,,,0.00,WUHU216HW,2013-05-16 18:32:00,
2013-05-16 13:37:00,82.9,49.9,29.87,ENE,68,0.0,0.0,32,0.00,,,0.00,WUHU216HW,2013-05-16 18:37:00,
2013-05-16 13:42:00,83.1,50.8,29.87,NNE,23,0.0,0.0,33,0.00,,,0.00,WUHU216HW,2013-05-16 18:42:00,
2013-05-16 13:47:00,84.0,50.0,29.87,ESE,113,0.0,0.0,31,0.00,,,0.00,WUHU216HW,2013-05-16 18:47:00,
2013-05-16 13:52:00,84.2,51.0,29.86,ENE,68,0.0,0.0,32,0.00,,,0.00,WUHU216HW,2013-05-16 18:52:00,
2013-05-16 13:57:00,84.7,53.1,29.86,NE,45,0.0,0.0,34,0.00,,,0.00,WUHU216HW,2013-05-16 18:57:00,
2013-05-16 14:02:00,84.3,49.6,29.86,NE,45,0.0,0.0,30,0.00,,,0.00,WUHU216HW,2013-05-16 19:02:00,
2013-05-16 14:07:00,84.0,50.0,29.86,North,0,0.0,0.0,31,0.00,,,0.00,WUHU216HW,2013-05-16 19:07:00,
2013-05-16 14:12:00,84.0,50.0,29.86,East,90,0.0,0.0,31,0.00,,,0.00,WUHU216HW,2013-05-16 19:12:00,
2013-05-16 14:17:00,84.7,49.9,29.86,NE,45,0.0,0.0,30,0.00,,,0.00,WUHU216HW,2013-05-16 19:17:00,
2013-05-16 14:22:00,84.7,51.5,29.86,ENE,68,0.0,0.0,32,0.00,,,0.00,WUHU216HW,2013-05-16 19:22:00,
2013-05-16 14:27:00,84.7,49.9,29.85,ENE,68,0.0,0.0,30,0.00,,,0.00,WUHU216HW,2013-05-16 19:27:00,
2013-05-16 14:32:00,84.3,51.2,29.85,ESE,113,0.0,0.0,32,0.00,,,0.00,WUHU216HW,2013-05-16 19:32:00,
2013-05-16 14:37:00,83.8,49.1,29.85,NW,315,0.0,0.0,30,0.00,,,0.00,WUHU216HW,2013-05-16 19:37:00,
2013-05-16 14:42:00,83.4,49.6,29.86,ESE,113,0.0,0.0,31,0.00,,,0.00,WUHU216HW,2013-05-16 19:42:00,
2013-05-16 14:47:00,83.3,47.5,29.86,NNE,23,0.0,0.0,29,0.00,,,0.00,WUHU216HW,2013-05-16 19:47:00,
2013-05-16 14:52:00,82.9,48.3,29.85,ENE,68,0.0,0.0,30,0.00,,,0.00,WUHU216HW,2013-05-16 19:52:00,
2013-05-16 14:57:00,82.5,48.7,29.85,ESE,113,0.0,0.0,31,0.00,,,0.00,WUHU216HW,2013-05-16 19:57:00,
2013-05-16 15:02:00,82.7,48.9,29.85,ENE,68,0.0,0.0,31,0.00,,,0.00,WUHU216HW,2013-05-16 20:02:00,
2013-05-16 15:07:00,82.7,48.9,29.85,ENE,68,0.0,0.0,31,0.00,,,0.00,WUHU216HW,2013-05-16 20:07:00,
2013-05-16 15:12:00,82.9,49.1,29.85,ENE,68,0.0,0.0,31,0.00,,,0.00,WUHU216HW,2013-05-16 20:12:00,
2013-05-16 15:17:00,83.8,50.7,29.85,NE,45,0.0,0.0,32,0.00,,,0.00,WUHU216HW,2013-05-16 20:17:00,
2013-05-16 15:22:00,84.7,52.3,29.85,ENE,68,0.0,0.0,33,0.00,,,0.00,WUHU216HW,2013-05-16 20:22:00,
2013-05-16 15:27:00,84.9,50.1,29.85,ENE,68,0.0,0.0,30,0.00,,,0.00,WUHU216HW,2013-05-16 20:27:00,
2013-05-16 15:32:00,85.2,50.4,29.85,ESE,113,0.0,0.0,30,0.00,,,0.00,WUHU216HW,2013-05-16 20:32:00,
2013-05-16 15:37:00,85.2,50.4,29.85,ESE,113,0.0,0.0,30,0.00,,,0.00,WUHU216HW,2013-05-16 20:37:00,
2013-05-16 15:42:00,85.6,50.7,29.85,ENE,68,0.0,0.0,30,0.00,,,0.00,WUHU216HW,2013-05-16 20:42:00,
2013-05-16 15:47:00,85.1,51.8,29.85,ESE,113,0.0,0.0,32,0.00,,,0.00,WUHU216HW,2013-05-16 20:47:00,
2013-05-16 15:52:00,84.9,50.1,29.85,East,90,0.0,0.0,30,0.00,,,0.00,WUHU216HW,2013-05-16 20:52:00,
2013-05-16 15:57:00,85.1,51.0,29.85,ESE,113,0.0,0.0,31,0.00,,,0.00,WUHU216HW,2013-05-16 20:57:00,
2013-05-16 16:02:00,84.9,51.6,29.85,SSE,158,0.0,0.0,32,0.00,,,0.00,WUHU216HW,2013-05-16 21:02:00,
2013-05-16 16:07:00,84.9,50.1,29.85,NE,45,0.0,0.0,30,0.00,,,0.00,WUHU216HW,2013-05-16 21:07:00,
2013-05-16 16:12:00,84.7,48.8,29.85,ESE,113,0.0,0.0,29,0.00,,,0.00,WUHU216HW,2013-05-16 21:12:00,
2013-05-16 16:17:00,84.7,49.9,29.85,ESE,113,0.0,0.0,30,0.00,,,0.00,WUHU216HW,2013-05-16 21:17:00,
2013-05-16 16:22:00,84.9,50.1,29.85,NNE,23,0.0,0.0,30,0.00,,,0.00,WUHU216HW,2013-05-16 21:22:00,
2013-05-16 16:27:00,85.2,49.3,29.85,ENE,68,0.0,0.0,29,0.00,,,0.00,WUHU216HW,2013-05-16 21:27:00,
2013-05-16 16:32:00,85.1,48.1,29.85,NE,45,0.0,0.0,28,0.00,,,0.00,WUHU216HW,2013-05-16 21:32:00,
2013-05-16 16:37:00,84.9,49.0,29.85,East,90,0.0,0.0,29,0.00,,,0.00,WUHU216HW,2013-05-16 21:37:00,
2013-05-16 16:42:00,84.9,49.0,29.84,ESE,113,0.0,0.0,29,0.00,,,0.00,WUHU216HW,2013-05-16 21:42:00,
2013-05-16 16:47:00,84.7,48.8,29.84,North,0,0.0,0.0,29,0.00,,,0.00,WUHU216HW,2013-05-16 21:47:00,
2013-05-16 16:52:00,84.7,48.8,29.84,NNE,23,0.0,0.0,29,0.00,,,0.00,WUHU216HW,2013-05-16 21:52:00,
2013-05-16 16:57:00,84.5,48.8,29.84,NE,45,0.0,0.0,29,0.00,,,0.00,WUHU216HW,2013-05-16 21:57:00,
2013-05-16 17:02:00,84.7,48.8,29.84,ENE,68,0.0,0.0,29,0.00,,,0.00,WUHU216HW,2013-05-16 22:02:00,
2013-05-16 17:07:00,84.5,48.7,29.83,NE,45,0.0,0.0,29,0.00,,,0.00,WUHU216HW,2013-05-16 22:07:00,
2013-05-16 17:12:00,83.8,48.0,29.83,ENE,68,0.0,0.0,29,0.00,,,0.00,WUHU216HW,2013-05-16 22:12:00,
2013-05-16 17:17:00,82.9,48.3,29.83,NE,45,0.0,0.0,30,0.00,,,0.00,WUHU216HW,2013-05-16 22:17:00,
2013-05-16 17:22:00,82.5,48.7,29.83,NE,45,0.0,0.0,31,0.00,,,0.00,WUHU216HW,2013-05-16 22:22:00,
2013-05-16 17:27:00,82.2,47.6,29.83,NNE,23,0.0,0.0,30,0.00,,,0.00,WUHU216HW,2013-05-16 22:27:00,
2013-05-16 17:32:00,81.6,48.0,29.83,NE,45,0.0,0.0,31,0.00,,,0.00,WUHU216HW,2013-05-16 22:32:00,
2013-05-16 17:37:00,81.3,47.7,29.83,NE,45,0.0,0.0,31,0.00,,,0.00,WUHU216HW,2013-05-16 22:37:00,
2013-05-16 17:42:00,81.1,46.8,29.83,ENE,68,0.0,0.0,30,0.00,,,0.00,WUHU216HW,2013-05-16 22:42:00,
2013-05-16 17:47:00,80.7,47.3,29.83,ENE,68,0.0,0.0,31,0.00,,,0.00,WUHU216HW,2013-05-16 22:47:00,
2013-05-16 17:52:00,80.4,46.2,29.83,NE,45,0.0,0.0,30,0.00,,,0.00,WUHU216HW,2013-05-16 22:52:00,
2013-05-16 17:57:00,80.0,46.8,29.83,NE,45,0.0,0.0,31,0.00,,,0.00,WUHU216HW,2013-05-16 22:57:00,
2013-05-16 18:02:00,79.8,46.5,29.83,NE,45,0.0,0.0,31,0.00,,,0.00,WUHU216HW,2013-05-16 23:02:00,
2013-05-16 18:07:00,79.5,46.2,29.83,North,0,0.0,0.0,31,0.00,,,0.00,WUHU216HW,2013-05-16 23:07:00,
2013-05-16 18:12:00,79.3,48.3,29.83,NNE,23,0.0,0.0,34,0.00,,,0.00,WUHU216HW,2013-05-16 23:12:00,
2013-05-16 18:17:00,78.6,46.9,29.83,NE,45,0.0,0.0,33,0.00,,,0.00,WUHU216HW,2013-05-16 23:17:00,
2013-05-16 18:22:00,78.6,48.4,29.83,East,90,0.0,0.0,35,0.00,,,0.00,WUHU216HW,2013-05-16 23:22:00,
2013-05-16 18:27:00,78.0,48.0,29.83,NNE,23,0.0,0.0,35,0.00,,,0.00,WUHU216HW,2013-05-16 23:27:00,
2013-05-16 18:32:00,78.0,48.0,29.82,ENE,68,0.0,0.0,35,0.00,,,0.00,WUHU216HW,2013-05-16 23:32:00,
2013-05-16 18:37:00,77.7,47.7,29.82,NE,45,0.0,0.0,35,0.00,,,0.00,WUHU216HW,2013-05-16 23:37:00,
2013-05-16 18:42:00,77.5,47.7,29.82,ENE,68,0.0,0.0,35,0.00,,,0.00,WUHU216HW,2013-05-16 23:42:00,
2013-05-16 18:47:00,77.5,47.5,29.82,ENE,68,0.0,0.0,35,0.00,,,0.00,WUHU216HW,2013-05-16 23:47:00,
2013-05-16 18:52:00,77.5,48.3,29.83,NNE,23,0.0,0.0,36,0.00,,,0.00,WUHU216HW,2013-05-16 23:52:00,
2013-05-16 18:57:00,77.1,48.0,29.82,NNE,23,0.0,0.0,36,0.00,,,0.00,WUHU216HW,2013-05-16 23:57:00,
2013-05-16 19:02:00,76.8,47.7,29.83,NNE,23,0.0,0.0,36,0.00,,,0.00,WUHU216HW,2013-05-17 00:02:00,
2013-05-16 19:07:00,76.8,47.7,29.84,NNE,23,0.0,0.0,36,0.00,,,0.00,WUHU216HW,2013-05-17 00:07:00,
2013-05-16 19:12:00,76.6,47.5,29.84,NE,45,0.0,0.0,36,0.00,,,0.00,WUHU216HW,2013-05-17 00:12:00,
2013-05-16 19:17:00,76.2,47.2,29.84,NE,45,0.0,0.0,36,0.00,,,0.00,WUHU216HW,2013-05-17 00:17:00,
2013-05-16 19:22:00,76.1,47.0,29.84,NE,45,0.0,0.0,36,0.00,,,0.00,WUHU216HW,2013-05-17 00:22:00,
2013-05-16 19:27:00,75.9,47.6,29.85,ENE,68,0.0,0.0,37,0.00,,,0.00,WUHU216HW,2013-05-17 00:27:00,
2013-05-16 19:32:00,75.5,47.3,29.85,NNE,23,0.0,0.0,37,0.00,,,0.00,WUHU216HW,2013-05-17 00:32:00,
2013-05-16 19:37:00,75.3,47.1,29.85,ESE,113,0.0,0.0,37,0.00,,,0.00,WUHU216HW,2013-05-17 00:37:00,
2013-05-16 19:42:00,74.8,46.6,29.85,NE,45,0.0,0.0,37,0.00,,,0.00,WUHU216HW,2013-05-17 00:42:00,
2013-05-16 19:47:00,74.6,46.5,29.85,East,90,0.0,0.0,37,0.00,,,0.00,WUHU216HW,2013-05-17 00:47:00,
2013-05-16 19:52:00,74.4,47.1,29.85,NE,45,0.0,0.0,38,0.00,,,0.00,WUHU216HW,2013-05-17 00:52:00,
2013-05-16 19:57:00,74.1,46.7,29.85,ENE,68,0.0,0.0,38,0.00,,,0.00,WUHU216HW,2013-05-17 00:57:00,
2013-05-16 20:02:00,74.1,46.7,29.85,NE,45,0.0,0.0,38,0.00,,,0.00,WUHU216HW,2013-05-17 01:02:00,
2013-05-16 20:07:00,73.9,46.6,29.85,NNE,23,0.0,0.0,38,0.00,,,0.00,WUHU216HW,2013-05-17 01:07:00,
2013-05-16 20:12:00,73.7,46.4,29.85,ENE,68,0.0,0.0,38,0.00,,,0.00,WUHU216HW,2013-05-17 01:12:00,
2013-05-16 20:17:00,73.7,46.4,29.85,NNE,23,0.0,0.0,38,0.00,,,0.00,WUHU216HW,2013-05-17 01:17:00,
2013-05-16 20:22:00,73.7,46.4,29.84,SSE,158,0.0,0.0,38,0.00,,,0.00,WUHU216HW,2013-05-17 01:22:00,
2013-05-16 20:27:00,73.5,46.3,29.84,ENE,68,0.0,0.0,38,0.00,,,0.00,WUHU216HW,2013-05-17 01:27:00,
2013-05-16 20:32:00,73.2,45.9,29.84,East,90,0.0,0.0,38,0.00,,,0.00,WUHU216HW,2013-05-17 01:32:00,
2013-05-16 20:37:00,73.2,45.9,29.84,ENE,68,0.0,0.0,38,0.00,,,0.00,WUHU216HW,2013-05-17 01:37:00,
2013-05-16 20:42:00,72.8,45.6,29.85,ENE,68,0.0,0.0,38,0.00,,,0.00,WUHU216HW,2013-05-17 01:42:00,
2013-05-16 20:47:00,72.5,45.3,29.85,ENE,68,0.0,0.0,38,0.00,,,0.00,WUHU216HW,2013-05-17 01:47:00,
2013-05-16 20:52:00,72.3,45.9,29.85,ENE,68,0.0,0.0,39,0.00,,,0.00,WUHU216HW,2013-05-17 01:52:00,
2013-05-16 20:57:00,71.9,45.6,29.85,East,90,0.0,0.0,39,0.00,,,0.00,WUHU216HW,2013-05-17 01:57:00,
2013-05-16 21:02:00,71.7,45.4,29.85,ENE,68,0.0,0.0,39,0.00,,,0.00,WUHU216HW,2013-05-17 02:02:00,
2013-05-16 21:07:00,71.4,45.1,29.85,East,90,0.0,0.0,39,0.00,,,0.00,WUHU216HW,2013-05-17 02:07:00,
2013-05-16 21:12:00,71.4,45.8,29.86,NE,45,0.0,0.0,40,0.00,,,0.00,WUHU216HW,2013-05-17 02:12:00,
2013-05-16 21:17:00,71.4,45.8,29.86,NE,45,0.0,0.0,40,0.00,,,0.00,WUHU216HW,2013-05-17 02:17:00,
2013-05-16 21:22:00,71.2,45.7,29.86,NE,45,0.0,0.0,40,0.00,,,0.00,WUHU216HW,2013-05-17 02:22:00,
2013-05-16 21:27:00,71.2,45.7,29.86,NE,45,0.0,0.0,40,0.00,,,0.00,WUHU216HW,2013-05-17 02:27:00,
2013-05-16 21:32:00,71.2,44.9,29.86,ENE,68,0.0,0.0,39,0.00,,,0.00,WUHU216HW,2013-05-17 02:32:00,
2013-05-16 21:37:00,71.2,44.9,29.86,NE,45,0.0,0.0,39,0.00,,,0.00,WUHU216HW,2013-05-17 02:37:00,
2013-05-16 21:42:00,71.2,44.9,29.86,ENE,68,0.0,0.0,39,0.00,,,0.00,WUHU216HW,2013-05-17 02:42:00,
2013-05-16 21:47:00,71.2,44.9,29.86,NE,45,0.0,0.0,39,0.00,,,0.00,WUHU216HW,2013-05-17 02:47:00,
2013-05-16 21:52:00,71.2,44.2,29.86,ENE,68,0.0,0.0,38,0.00,,,0.00,WUHU216HW,2013-05-17 02:52:00,
2013-05-16 21:57:00,70.8,43.1,29.87,ENE,68,0.0,0.0,37,0.00,,,0.00,WUHU216HW,2013-05-17 02:57:00,
2013-05-16 22:02:00,70.8,43.1,29.86,ESE,113,0.0,0.0,37,0.00,,,0.00,WUHU216HW,2013-05-17 03:02:00,
2013-05-16 22:07:00,70.7,43.0,29.86,ENE,68,0.0,0.0,37,0.00,,,0.00,WUHU216HW,2013-05-17 03:07:00,
2013-05-16 22:12:00,70.7,43.0,29.86,ENE,68,0.0,0.0,37,0.00,,,0.00,WUHU216HW,2013-05-17 03:12:00,
2013-05-16 22:17:00,70.5,42.8,29.87,ENE,68,0.0,0.0,37,0.00,,,0.00,WUHU216HW,2013-05-17 03:17:00,
2013-05-16 22:22:00,70.5,41.9,29.87,NNW,338,0.0,0.0,36,0.00,,,0.00,WUHU216HW,2013-05-17 03:22:00,
2013-05-16 22:27:00,70.3,41.2,29.86,NNW,338,0.0,0.0,35,0.00,,,0.00,WUHU216HW,2013-05-17 03:27:00,
2013-05-16 22:32:00,70.3,41.2,29.86,North,0,0.0,0.0,35,0.00,,,0.00,WUHU216HW,2013-05-17 03:32:00,
2013-05-16 22:37:00,69.9,41.0,29.86,East,90,0.0,0.0,35,0.00,,,0.00,WUHU216HW,2013-05-17 03:37:00,
2013-05-16 22:42:00,69.8,39.9,29.87,ENE,68,0.0,0.0,34,0.00,,,0.00,WUHU216HW,2013-05-17 03:42:00,
2013-05-16 22:47:00,69.6,40.5,29.87,ENE,68,0.0,0.0,35,0.00,,,0.00,WUHU216HW,2013-05-17 03:47:00,
2013-05-16 22:52:00,69.6,40.5,29.87,NE,45,0.0,0.0,35,0.00,,,0.00,WUHU216HW,2013-05-17 03:52:00,
2013-05-16 22:57:00,69.4,40.4,29.87,East,90,0.0,0.0,35,0.00,,,0.00,WUHU216HW,2013-05-17 03:57:00,
2013-05-16 23:01:00,69.0,40.0,29.87,ENE,68,0.0,0.0,35,0.00,,,0.00,WUHU216HW,2013-05-17 04:01:00,
2013-05-16 23:06:00,68.9,39.9,29.87,SSE,158,0.0,0.0,35,0.00,,,0.00,WUHU216HW,2013-05-17 04:06:00,
2013-05-16 23:11:00,68.5,39.5,29.87,ENE,68,0.0,0.0,35,0.00,,,0.00,WUHU216HW,2013-05-17 04:11:00,
2013-05-16 23:16:00,68.5,39.5,29.87,NE,45,0.0,0.0,35,0.00,,,0.00,WUHU216HW,2013-05-17 04:16:00,
2013-05-16 23:21:00,68.3,39.4,29.87,East,90,0.0,0.0,35,0.00,,,0.00,WUHU216HW,2013-05-17 04:21:00,
2013-05-16 23:26:00,68.1,38.5,29.87,East,90,0.0,0.0,34,0.00,,,0.00,WUHU216HW,2013-05-17 04:26:00,
2013-05-16 23:31:00,68.1,38.5,29.87,East,90,0.0,0.0,34,0.00,,,0.00,WUHU216HW,2013-05-17 04:31:00,
2013-05-16 23:36:00,67.8,38.2,29.86,ENE,68,0.0,0.0,34,0.00,,,0.00,WUHU216HW,2013-05-17 04:36:00,
2013-05-16 23:41:00,67.8,38.2,29.87,NE,45,0.0,0.0,34,0.00,,,0.00,WUHU216HW,2013-05-17 04:41:00,
2013-05-16 23:46:00,67.6,38.0,29.87,ENE,68,0.0,0.0,34,0.00,,,0.00,WUHU216HW,2013-05-17 04:46:00,
2013-05-16 23:51:00,67.2,37.7,29.87,East,90,0.0,0.0,34,0.00,,,0.00,WUHU216HW,2013-05-17 04:51:00,
2013-05-16 23:56:00,67.2,37.7,29.87,SE,135,0.0,0.0,34,0.00,,,0.00,WUHU216HW,2013-05-17 04:56:00,